When you browse on this site, cookies collect data to enhance your experience and personalize the content and advertising you see.
Visit our Privacy Policy to learn more. By continuing to use the site, you agree to this use of cookies and data.
  • în România
  • Lista ţărilor
  • Pe 7 zile
  • Temperatura apei
  • Meteo pe hartă
  • Widget-uri
  • user-avatar
    Intrare

    Meteo pe oră la Tonton

    Astăzi, 6 Decembrie, Vineri

    Timp Temperatura Precipitaţii Vânt Presiune Umiditate
    00:00 +10°C° 0 mm 7 m/s 757 mmHg 88%
    01:00 +10°C° 0.1 mm 7 m/s 756 mmHg 89%
    02:00 +10°C° 0.1 mm 8 m/s 755 mmHg 90%
    03:00 +10°C° 0.1 mm 8 m/s 755 mmHg 91%
    04:00 +11°C° 0.5 mm 8 m/s 754 mmHg 92%
    05:00 +11°C° 0.5 mm 8 m/s 754 mmHg 92%
    06:00 +11°C° 0 mm 8 m/s 754 mmHg 92%
    07:00 +11°C° 0.1 mm 8 m/s 753 mmHg 92%
    08:00 +11°C° 0.1 mm 7 m/s 753 mmHg 92%
    09:00 +11°C° 0.1 mm 7 m/s 753 mmHg 92%
    10:00 +11°C° 0.1 mm 8 m/s 752 mmHg 89%
    11:00 +11°C° 0.1 mm 8 m/s 752 mmHg 87%
    12:00 +11°C° 0.1 mm 9 m/s 752 mmHg 84%
    13:00 +11°C° 0.4 mm 9 m/s 752 mmHg 83%
    14:00 +10°C° 0.4 mm 9 m/s 751 mmHg 83%
    15:00 +8°C° 0.4 mm 10 m/s 751 mmHg 82%
    16:00 +8°C° 0 mm 9 m/s 752 mmHg 84%
    17:00 +7°C° 0 mm 8 m/s 753 mmHg 85%
    18:00 +8°C° 0 mm 7 m/s 754 mmHg 87%
    19:00 +7°C° 0 mm 6 m/s 755 mmHg 88%
    20:00 +7°C° 0 mm 5 m/s 755 mmHg 90%
    21:00 +7°C° 0 mm 5 m/s 756 mmHg 91%
    22:00 +7°C° 0 mm 5 m/s 756 mmHg 92%
    23:00 +6°C° 0 mm 5 m/s 757 mmHg 92%

    Mâine, 7 Decembrie, Sâmbătă

    Timp Temperatura Precipitaţii Vânt Presiune Umiditate
    00:00 +6°C° 0 mm 5 m/s 757 mmHg 92%
    01:00 +6°C° 0 mm 5 m/s 757 mmHg 92%
    02:00 +6°C° 0 mm 4 m/s 757 mmHg 93%
    03:00 +6°C° 0 mm 4 m/s 758 mmHg 93%
    04:00 +6°C° 0 mm 4 m/s 758 mmHg 93%
    05:00 +6°C° 0 mm 4 m/s 758 mmHg 93%
    06:00 +5°C° 0 mm 4 m/s 759 mmHg 94%
    07:00 +5°C° 0 mm 3 m/s 759 mmHg 94%
    08:00 +5°C° 0 mm 3 m/s 759 mmHg 93%
    09:00 +5°C° 0 mm 3 m/s 759 mmHg 93%
    10:00 +8°C° 0 mm 3 m/s 759 mmHg 90%
    11:00 +8°C° 0 mm 4 m/s 759 mmHg 87%
    12:00 +9°C° 0 mm 5 m/s 759 mmHg 83%
    13:00 +10°C° 0 mm 4 m/s 759 mmHg 84%
    14:00 +10°C° 0 mm 4 m/s 759 mmHg 86%
    15:00 +10°C° 0 mm 4 m/s 758 mmHg 87%
    16:00 +8°C° 0 mm 4 m/s 758 mmHg 89%
    17:00 +8°C° 0 mm 4 m/s 758 mmHg 91%
    18:00 +7°C° 0 mm 5 m/s 757 mmHg 93%
    19:00 +8°C° 0 mm 6 m/s 757 mmHg 93%
    20:00 +8°C° 0 mm 7 m/s 756 mmHg 93%
    21:00 +9°C° 0 mm 8 m/s 755 mmHg 93%
    22:00 +8°C° 0.2 mm 9 m/s 754 mmHg 93%
    23:00 +9°C° 0.2 mm 10 m/s 753 mmHg 92%

    Poimâine, 8 Decembrie, Duminică

    Timp Temperatura Precipitaţii Vânt Presiune Umiditate
    00:00 +9°C° 0.2 mm 10 m/s 751 mmHg 92%
    01:00 +11°C° 0.6 mm 10 m/s 751 mmHg 93%
    02:00 +12°C° 0.6 mm 10 m/s 750 mmHg 93%
    03:00 +12°C° 0.6 mm 10 m/s 749 mmHg 93%
    04:00 +11°C° 0 mm 9 m/s 749 mmHg 91%
    05:00 +9°C° 0 mm 8 m/s 750 mmHg 88%
    06:00 +7°C° 0 mm 8 m/s 750 mmHg 86%
    07:00 +6°C° 0 mm 8 m/s 750 mmHg 85%
    08:00 +6°C° 0 mm 8 m/s 750 mmHg 84%
    09:00 +6°C° 0 mm 8 m/s 751 mmHg 84%
    10:00 +6°C° 0.2 mm 9 m/s 750 mmHg 82%
    11:00 +6°C° 0.2 mm 10 m/s 750 mmHg 81%
    12:00 +6°C° 0.2 mm 11 m/s 750 mmHg 80%
    13:00 +6°C° 0.3 mm 11 m/s 750 mmHg 79%
    14:00 +6°C° 0.3 mm 10 m/s 749 mmHg 78%
    15:00 +6°C° 0.3 mm 10 m/s 749 mmHg 77%
    16:00 +5°C° 0.1 mm 10 m/s 748 mmHg 78%
    17:00 +5°C° 0.1 mm 10 m/s 748 mmHg 79%
    18:00 +3°C° 0.1 mm 10 m/s 748 mmHg 80%
    19:00 +4°C° 0.3 mm 11 m/s 747 mmHg 82%
    20:00 +4°C° 0.3 mm 13 m/s 746 mmHg 84%
    21:00 +4°C° 0.3 mm 14 m/s 746 mmHg 86%
    22:00 +4°C° 0.5 mm 14 m/s 745 mmHg 85%
    23:00 +5°C° 0.5 mm 14 m/s 745 mmHg 83%

    9 Decembrie, Luni

    Timp Temperatura Precipitaţii Vânt Presiune Umiditate
    00:00 +5°C° 0.5 mm 14 m/s 744 mmHg 82%
    01:00 +5°C° 0.6 mm 14 m/s 744 mmHg 81%
    02:00 +5°C° 0.6 mm 14 m/s 744 mmHg 81%
    03:00 +5°C° 0.6 mm 14 m/s 743 mmHg 80%
    04:00 +5°C° 0.4 mm 14 m/s 744 mmHg 81%
    05:00 +5°C° 0.4 mm 14 m/s 745 mmHg 82%
    06:00 +5°C° 0.4 mm 13 m/s 745 mmHg 83%
    07:00 +5°C° 0 mm 12 m/s 747 mmHg 82%
    08:00 +6°C° 0 mm 11 m/s 749 mmHg 80%
    09:00 +6°C° 0 mm 10 m/s 751 mmHg 78%
    10:00 +6°C° 0 mm 10 m/s 752 mmHg 77%
    11:00 +7°C° 0 mm 10 m/s 754 mmHg 76%
    12:00 +7°C° 0 mm 10 m/s 755 mmHg 75%
    13:00 +7°C° 0 mm 10 m/s 756 mmHg 74%
    14:00 +7°C° 0 mm 9 m/s 758 mmHg 74%
    15:00 +6°C° 0 mm 9 m/s 759 mmHg 73%
    16:00 +6°C° 0 mm 8 m/s 760 mmHg 74%
    17:00 +5°C° 0 mm 7 m/s 761 mmHg 74%
    18:00 +5°C° 0 mm 5 m/s 763 mmHg 75%
    19:00 +4°C° 0 mm 4 m/s 763 mmHg 77%
    20:00 +4°C° 0 mm 3 m/s 764 mmHg 80%
    21:00 +4°C° 0 mm 2 m/s 765 mmHg 83%
    22:00 +4°C° 0 mm 2 m/s 765 mmHg 84%
    23:00 +4°C° 0 mm 2 m/s 765 mmHg 84%

    10 Decembrie, Marţi

    Timp Temperatura Precipitaţii Vânt Presiune Umiditate
    00:00 +4°C° 0 mm 2 m/s 765 mmHg 85%
    01:00 +4°C° 0 mm 2 m/s 764 mmHg 85%
    02:00 +3°C° 0 mm 3 m/s 764 mmHg 85%
    03:00 +3°C° 0 mm 3 m/s 763 mmHg 85%
    04:00 +4°C° 0 mm 4 m/s 763 mmHg 85%
    05:00 +5°C° 0 mm 5 m/s 762 mmHg 86%
    06:00 +5°C° 0 mm 6 m/s 761 mmHg 86%
    07:00 +6°C° 0.3 mm 7 m/s 760 mmHg 87%
    08:00 +7°C° 0.3 mm 8 m/s 759 mmHg 88%
    09:00 +7°C° 0.3 mm 10 m/s 758 mmHg 90%
    10:00 +8°C° 0.9 mm 10 m/s 756 mmHg 91%
    11:00 +8°C° 0.9 mm 11 m/s 755 mmHg 92%
    12:00 +8°C° 0.9 mm 12 m/s 754 mmHg 93%
    13:00 +9°C° 0.3 mm 12 m/s 752 mmHg 93%
    14:00 +11°C° 0.3 mm 11 m/s 751 mmHg 92%
    15:00 +11°C° 0.3 mm 11 m/s 749 mmHg 92%
    16:00 +9°C° 1.6 mm 11 m/s 749 mmHg 91%
    17:00 +8°C° 1.6 mm 12 m/s 749 mmHg 91%
    18:00 +7°C° 1.6 mm 12 m/s 749 mmHg 90%
    19:00 +6°C° 0.3 mm 10 m/s 750 mmHg 87%
    20:00 +5°C° 0.3 mm 8 m/s 750 mmHg 85%
    21:00 +4°C° 0.3 mm 7 m/s 751 mmHg 82%
    22:00 +4°C° 0 mm 6 m/s 752 mmHg 82%
    23:00 +3°C° 0 mm 6 m/s 752 mmHg 82%

    11 Decembrie, Miercuri

    Timp Temperatura Precipitaţii Vânt Presiune Umiditate
    00:00 +3°C° 0 mm 6 m/s 753 mmHg 82%
    01:00 +3°C° 0 mm 6 m/s 753 mmHg 82%
    02:00 +3°C° 0 mm 6 m/s 753 mmHg 83%
    03:00 +2°C° 0 mm 6 m/s 753 mmHg 83%
    04:00 +2°C° 0.1 mm 6 m/s 752 mmHg 84%
    05:00 +2°C° 0.1 mm 7 m/s 752 mmHg 85%
    06:00 +3°C° 0.1 mm 7 m/s 751 mmHg 85%
    07:00 +2°C° 0 mm 6 m/s 751 mmHg 85%
    08:00 +2°C° 0 mm 5 m/s 751 mmHg 85%
    09:00 +3°C° 0 mm 4 m/s 751 mmHg 86%
    10:00 +3°C° 0.8 mm 4 m/s 750 mmHg 87%
    11:00 +3°C° 0.8 mm 5 m/s 750 mmHg 89%
    12:00 +3°C° 0.8 mm 5 m/s 749 mmHg 91%
    13:00 +3°C° 0.1 mm 5 m/s 749 mmHg 88%
    14:00 +3°C° 0.1 mm 6 m/s 749 mmHg 85%
    15:00 +4°C° 0.1 mm 6 m/s 749 mmHg 81%
    16:00 +3°C° 0 mm 6 m/s 750 mmHg 82%
    17:00 +2°C° 0 mm 6 m/s 750 mmHg 83%
    18:00 +2°C° 0 mm 6 m/s 750 mmHg 83%
    19:00 +2°C° 0.1 mm 6 m/s 750 mmHg 84%
    20:00 +2°C° 0.1 mm 7 m/s 750 mmHg 84%
    21:00 +2°C° 0.1 mm 7 m/s 750 mmHg 84%
    22:00 +3°C° 0.1 mm 7 m/s 749 mmHg 85%
    23:00 +3°C° 0.1 mm 7 m/s 748 mmHg 86%
    Arată mai mult